Погода в Ахалкалаки

Грузия     41˚24′14″N   43˚28′55″E
темп.,
°C
ветер,
м/с
пор.,
м/с
влажн.,
%
обл.,
%
осадки,
мм/ч
давл.,
гПа
погр.,
м
6 декабря, вс
вс601:00−8˚вюв23790 0.0 102630
04:00−9˚в33780 0.0 102531
07:00−9˚вюв33790 0.0 102531
10:00−7˚в23790 0.0 102569
13:00−4˚в22770 0.0 1023294
16:00−5˚в33800 0.0 1022116
19:00−9˚в44810 0.0 102543
22:00−9˚в33800 0.0 102647
7 декабря, пн
пн701:00−10˚в33800 0.0 102750
04:00−10˚в33802 0.0 102750
07:00−10˚в34801 0.0 102851
10:00−9˚в33780 0.0 102897
13:00−5˚вюв35760 0.0 1026342
16:00−5˚вюв34780 0.0 1025259
19:00−9˚вюв33790 0.0 102842
22:00−9˚вюв33830 0.0 102844
8 декабря, вт
вт801:00−9˚вюв33860 0.0 102844
04:00−9˚вюв33860 0.0 102744
07:00−8˚юв338330 0.0 102743
10:00−6˚юв238240 0.0 1027118
13:00−3˚ююв247838 0.0 1024358
16:00−3˚юв248146 0.0 1023188
19:00−6˚юв338472 0.0 102549
22:00−6˚юв238260 0.0 102647
9 декабря, ср
ср901:00−5˚юв3383100 0.0 102653
04:00−5˚юв2384100 0.0 102649
07:00−4˚юв2286100 0.1 102545
10:00−4˚юв2283100 0.1 102568
13:00−1˚ююв2281100 0.0 1024239
16:00−1˚ю128799 0.0 1023167
19:00−3˚юв1193100 0.1 102422
22:00−3˚ююв1195100 0.3 102522
10 декабря, чт
чт1001:00−4˚юв119593 0.1 102621
04:00−5˚вюв129251 0.1 102722
07:00−5˚юв129136 0.0 102724
10:00−4˚юв228836 0.0 102896
13:00−1˚юв118133 0.0 1026190
16:00−2˚вюв118017 0.0 102568
19:00−5˚вюв33790 0.0 102725
22:00−6˚вюв23770 0.0 102730